Погода в Монтероссо-аль-Маре

Италия     44°08′59″N   9°39′17″E
темп.,
°C
ветер,
м/с
пор.,
м/с
влажн.,
%
обл.,
%
осадки,
мм/ч
давл.,
гПа
погр.,
м
10 мая, пн
пн1023:00+12ссв1176100 0.0 101816
02:00+12ссв1174100 0.0 101715
05:00+12ссв217935 0.0 101617
08:00+16ссз11675 0.0 101788
11:00+20ююв354515 0.0 10161034
14:00+20ю3654100 0.0 1016997
17:00+17ююв2664100 0.0 1016672
20:00+14юв1483100 0.0 1015220
11 мая, вт
вт1123:00+13всв238858 0.3 101573
02:00+13с1182100 0.3 101424
05:00+13всв1180100 0.2 101214
08:00+12в2397100 3.9 1012185
11:00+12юв2798100 0.6 1011701
14:00+12в1396100 4.1 1008242
17:00+11юз2399100 20.3 1008235
20:00+11ю1299100 25.2 1008197
12 мая, ср
ср1223:00+10вюв1299100 0.3 1009130
02:00+10ююв12100100 1.1 1007200
05:00+11ююв1299100 1.8 1005143
08:00+10юв2598100 3.4 1006420
11:00+10св129498 1.1 1006221
14:00+11зсз0193100 1.5 1006163
17:00+11вюв1294100 0.4 1006343
20:00+10св129648 0.6 100686
13 мая, чт
чт1323:00+10вюв129592 0.1 100671
02:00+8св239830 0.3 100576
05:00+8с339746 0.0 100454
08:00+11всв1188100 0.0 100491
11:00+12ю1184100 0.4 1005439
14:00+12ююв1292100 1.0 1005332
17:00+13ю227858 0.1 1005650
20:00+11ююв129018 0.1 100653
14 мая, пт
пт1423:00+8св219830 0.0 100829
02:00+9св229833 0.0 100863
05:00+9всв129696 0.0 100956
08:00+11ю2596100 1.1 1010263
11:00+12ююз579293 3.3 1012884
14:00+12ююз358148 6.0 1012894
17:00+12ю3585100 0.8 1012787
20:00+10всв1191100 1.1 101218